This is the latest recevied weather packets stored in our database for station/object WP3OF-2. If no packets are shown the sender has not sent any weather packets the latest 10 day(s).
| Time | Temp. | Humidity | Pressure | Rain* | Wind** | Luminosity | Snow |
|---|---|---|---|---|---|---|---|
| 1788466498 | 21.67° C | 99% | 1024.9 hPa | 0 mm | - | 14 W/m² | - |
| 1788466197 | 21.67° C | 99% | 1024.9 hPa | 0 mm | - | 12 W/m² | - |
| 1788465893 | 21.67° C | 99% | 1024.9 hPa | 6.1 mm | - | 10 W/m² | - |
| 1788465618 | 21.67° C | 99% | 1024.9 hPa | 13.21 mm | - | 4 W/m² | - |
| 1788465283 | 21.67° C | 99% | 1024.9 hPa | 10.92 mm | - | 12 W/m² | - |
| 1788464978 | 21.67° C | 99% | 1024.9 hPa | 7.11 mm | - | 23 W/m² | - |
| 1788464674 | 21.67° C | 99% | 1024.9 hPa | 11.94 mm | - | 35 W/m² | - |
| 1788464369 | 22.22° C | 99% | 1024.9 hPa | 6.1 mm | - | 31 W/m² | - |
| 1788464065 | 22.22° C | 99% | 1024.9 hPa | 0 mm | - | 33 W/m² | - |
| 1788463760 | 22.22° C | 99% | 1024.5 hPa | 0 mm | - | 20 W/m² | - |
| 1788463456 | 22.22° C | 99% | 1024.9 hPa | 0 mm | - | 28 W/m² | - |
| 1788463152 | 22.22° C | 99% | 1024.9 hPa | 0 mm | - | 30 W/m² | - |
| 1788462849 | 22.22° C | 99% | 1024.9 hPa | 0 mm | - | 26 W/m² | - |
| 1788462547 | 22.22° C | 99% | 1025.2 hPa | 0 mm | - | 52 W/m² | - |
| 1788462241 | 22.22° C | 99% | 1025.2 hPa | 1.27 mm | - | 18 W/m² | - |
| 1788461941 | 22.22° C | 99% | 1024.9 hPa | 1.27 mm | - | 24 W/m² | - |
| 1788461636 | 22.22° C | 99% | 1025.2 hPa | 1.78 mm | - | 13 W/m² | - |
| 1788461332 | 22.22° C | 98% | 1025.2 hPa | 1.78 mm | - | 21 W/m² | - |
| 1788461029 | 22.78° C | 97% | 1025.2 hPa | 0 mm | - | 17 W/m² | - |
| 1788460723 | 23.33° C | 97% | 1025.2 hPa | 0 mm | - | 11 W/m² | - |
| 1788460418 | 23.33° C | 98% | 1024.9 hPa | 0 mm | - | 29 W/m² | - |
| 1788460117 | 22.78° C | 98% | 1024.9 hPa | 0 mm | - | 76 W/m² | - |
| 1788459816 | 23.33° C | 97% | 1024.9 hPa | 0 mm | - | 53 W/m² | - |
| 1788459511 | 23.33° C | 97% | 1024.9 hPa | 0 mm | - | 123 W/m² | - |
| 1788459206 | 23.33° C | 94% | 1025.2 hPa | 0 mm | - | 153 W/m² | - |
* Rain latest hour (hover to see other rain measurements)
** Current wind speed in m/s (hover to see current wind gust speed)